Spokane Fairchild, WA

10:18 AM PDT on April 30, 2017 (GMT -0700)
Fairchild Air Force Base

Weather History for KSKA - June, 2013

Change the Weather History Date:

Tuesday, June 25, 2013

  Actual Average Record
Temperature  
Mean Temperature 57 °F -  
Max Temperature 67 °F 73 °F 89 °F (2006)
Min Temperature 48 °F 50 °F 39 °F (2007)
Degree Days  
Heating Degree Days 8    
Growing Degree Days 7 (Base 50)    
Moisture  
Dew Point 52 °F    
Average Humidity 86    
Maximum Humidity 100    
Minimum Humidity 57    
Precipitation  
Precipitation 0.18 in - - ()
Sea Level Pressure  
Sea Level Pressure 29.82 in    
Wind  
Wind Speed 7 mph (South)    
Max Wind Speed 21 mph    
Max Gust Speed 26 mph    
Visibility 8 miles    
Events Rain , Thunderstorm    
Averages and records for this station are not official NWS values.
T = Trace of Precipitation, MM = Missing Value Source: NWS Daily Summary

Daily Weather History Graph

Daily Weather History Graph

Search for Another Location

Airport or City:

Trip Planner

Search our weather history database for the weather conditions in past years. The results will help you decide how hot, cold, wet, or windy it might be!

Date:

Astronomy

Jun. 25, 2013 Rise Set
Actual Time 4:54 AM PDT 8:52 PM PDT
Civil Twilight 4:13 AM PDT 9:33 PM PDT
Nautical Twilight 3:17 AM PDT 10:29 PM PDT
Astronomical Twilight 1:46 AM PDT 11:59 PM PDT
Moon 10:25 PM PDT (6/25) 7:52 AM PDT (6/25)
Length of Visible Light 17h 19m
Length of Day
15h 58m
Waning Gibbous, 92% of the Moon is Illuminated
Jun 25
Waning Gibbous
Jun 29
Last Quarter
Jul 8
New
Jul 15
First Quarter
Jul 22
Full

Hourly Weather History & Observations

Time (PDT) Temp. Dew Point Humidity Pressure Visibility Wind Dir Wind Speed Gust Speed Precip Events Conditions
12:09 AM 51.8 °F 51.8 °F 100% 29.76 in 10.0 mi South 5.8 mph - N/A   Overcast
12:21 AM 51.8 °F 51.8 °F 100% 29.76 in 10.0 mi South 6.9 mph - N/A   Overcast
12:29 AM 51.8 °F 50.0 °F 94% 29.76 in 10.0 mi South 6.9 mph - N/A   Overcast
12:34 AM 51.8 °F 50.0 °F 94% 29.76 in 10.0 mi SSE 6.9 mph - N/A   Mostly Cloudy
12:37 AM 51.8 °F 50.0 °F 94% 29.76 in 10.0 mi SSE 5.8 mph - N/A   Mostly Cloudy
12:55 AM 50.0 °F 50.0 °F 100% 29.76 in 10.0 mi SSE 6.9 mph - N/A   Scattered Clouds
12:58 AM 50.4 °F 49.8 °F 98% 29.77 in 10.0 mi South 6.9 mph - N/A   Scattered Clouds
1:42 AM 48.2 °F 48.2 °F 100% 29.77 in 10.0 mi SE 5.8 mph - N/A   Mostly Cloudy
1:45 AM 48.2 °F 48.2 °F 100% 29.77 in 10.0 mi SE 6.9 mph - N/A   Scattered Clouds
1:53 AM 48.2 °F 48.2 °F 100% 29.77 in 10.0 mi SE 4.6 mph - N/A   Mostly Cloudy
1:58 AM 49.1 °F 48.7 °F 99% 29.77 in 10.0 mi SE 3.5 mph - N/A   Mostly Cloudy
2:22 AM 50.0 °F 48.2 °F 94% 29.77 in 10.0 mi SE 3.5 mph - N/A   Scattered Clouds
2:43 AM 50.0 °F 48.2 °F 94% 29.77 in 10.0 mi SSE 2.3 mph - N/A   Mostly Cloudy
2:51 AM 50.0 °F 50.0 °F 100% 29.77 in 8.0 mi Variable 1.2 mph - N/A   Scattered Clouds
2:58 AM 49.3 °F 49.3 °F 100% 29.77 in 6.0 mi SE 2.3 mph - N/A   Scattered Clouds
3:58 AM 48.2 °F 48.0 °F 99% 29.78 in 10.0 mi SE 5.8 mph - N/A   Partly Cloudy
4:58 AM 48.7 °F 47.7 °F 96% 29.79 in 10.0 mi SE 3.5 mph - N/A   Partly Cloudy
5:58 AM 49.1 °F 47.7 °F 95% 29.80 in 10.0 mi NNE 4.6 mph - N/A   Clear
6:58 AM 51.8 °F 50.4 °F 95% 29.80 in 10.0 mi East 6.9 mph - N/A   Mostly Cloudy
7:03 AM 51.8 °F 51.8 °F 100% 29.80 in 10.0 mi East 6.9 mph - N/A Rain Light Rain
7:16 AM 51.8 °F 50.0 °F 94% 29.80 in 10.0 mi ESE 5.8 mph - N/A   Mostly Cloudy
7:58 AM 55.0 °F 51.6 °F 88% 29.81 in 10.0 mi ESE 6.9 mph - 0.00 in   Overcast
8:58 AM 56.7 °F 52.3 °F 85% 29.82 in 10.0 mi ESE 6.9 mph - N/A   Overcast
9:58 AM 60.3 °F 53.1 °F 77% 29.81 in 10.0 mi ESE 6.9 mph - N/A   Mostly Cloudy
10:58 AM 62.4 °F 52.3 °F 70% 29.81 in 10.0 mi Variable 4.6 mph - N/A   Overcast
11:16 AM 62.6 °F 51.8 °F 68% 29.81 in 10.0 mi SW 4.6 mph - N/A Rain Light Rain
11:28 AM 60.8 °F 53.6 °F 77% 29.82 in 6.0 mi SSW 12.7 mph - N/A Rain Light Rain
11:29 AM 60.8 °F 53.6 °F 77% 29.82 in 4.0 mi South 18.4 mph 25.3 mph N/A Rain , Thunderstorm Light Thunderstorms and Rain
11:31 AM 60.8 °F 53.6 °F 77% 29.82 in 2.0 mi South 16.1 mph 25.3 mph N/A Rain , Thunderstorm Light Thunderstorms and Rain
11:32 AM 59.0 °F 53.6 °F 82% 29.82 in 1.8 mi South 13.8 mph 25.3 mph N/A Rain , Thunderstorm Light Thunderstorms and Rain
11:33 AM 59.0 °F 53.6 °F 82% 29.82 in 1.5 mi South 16.1 mph 25.3 mph N/A Rain , Thunderstorm Light Thunderstorms and Rain
11:34 AM 59.0 °F 53.6 °F 82% 29.82 in 1.2 mi South 20.7 mph 26.5 mph N/A Rain , Thunderstorm Light Thunderstorms and Rain
11:35 AM 59.0 °F 53.6 °F 82% 29.82 in 1.0 mi South 19.6 mph 26.5 mph N/A Rain , Thunderstorm Light Thunderstorms and Rain
11:36 AM 57.2 °F 53.6 °F 88% 29.83 in 0.8 mi SSW 12.7 mph 26.5 mph N/A Rain , Thunderstorm Light Thunderstorms and Rain
11:37 AM 57.2 °F 53.6 °F 88% 29.83 in 0.8 mi SSW 9.2 mph 26.5 mph N/A Rain , Thunderstorm Heavy Thunderstorms and Rain
11:42 AM 55.4 °F 51.8 °F 88% 29.83 in 0.8 mi South 12.7 mph 26.5 mph N/A Rain , Thunderstorm Heavy Thunderstorms and Rain
11:44 AM 55.4 °F 51.8 °F 88% 29.84 in 0.8 mi South 12.7 mph 26.5 mph N/A Rain , Thunderstorm Heavy Thunderstorms and Rain
11:45 AM 55.4 °F 51.8 °F 88% 29.84 in 1.0 mi South 11.5 mph 19.6 mph N/A Rain , Thunderstorm Heavy Thunderstorms and Rain
11:47 AM 55.4 °F 51.8 °F 88% 29.84 in 1.2 mi South 12.7 mph 19.6 mph N/A Rain , Thunderstorm Heavy Thunderstorms and Rain
11:48 AM 53.6 °F 51.8 °F 94% 29.84 in 1.5 mi South 12.7 mph - N/A Rain , Thunderstorm Heavy Thunderstorms and Rain
11:49 AM 53.6 °F 51.8 °F 94% 29.84 in 1.5 mi South 11.5 mph - N/A Rain Heavy Rain
11:50 AM 53.6 °F 51.8 °F 94% 29.84 in 1.8 mi South 11.5 mph - N/A Rain Heavy Rain
11:51 AM 53.6 °F 51.8 °F 94% 29.84 in 2.0 mi South 11.5 mph - N/A Rain Heavy Rain
11:54 AM 53.6 °F 51.8 °F 94% 29.83 in 2.5 mi South 10.4 mph - N/A Rain Rain
11:56 AM 53.6 °F 51.8 °F 94% 29.83 in 3.0 mi South 10.4 mph - N/A Rain Light Rain
11:58 AM 54.0 °F 52.2 °F 94% 29.84 in 3.0 mi South 10.4 mph - 0.17 in Rain Light Rain
12:02 PM 55.4 °F 53.6 °F 94% 29.83 in 5.0 mi South 6.9 mph - N/A Rain Light Rain
12:29 PM 57.2 °F 55.4 °F 94% 29.83 in 10.0 mi SW 9.2 mph - N/A Rain Light Rain
12:30 PM 57.2 °F 55.4 °F 94% 29.83 in 10.0 mi SSW 9.2 mph - N/A Rain Light Rain
12:33 PM 57.2 °F 55.4 °F 94% 29.83 in 10.0 mi SSW 5.8 mph - N/A Rain Light Rain
12:45 PM 59.0 °F 55.4 °F 88% 29.83 in 10.0 mi SSW 4.6 mph - N/A   Mostly Cloudy
12:58 PM 59.5 °F 54.7 °F 84% 29.82 in 10.0 mi SSW 4.6 mph - 0.01 in   Mostly Cloudy
1:21 PM 60.8 °F 53.6 °F 77% 29.82 in 10.0 mi SSE 4.6 mph - N/A   Mostly Cloudy
1:34 PM 60.8 °F 53.6 °F 77% 29.83 in 10.0 mi South 5.8 mph - N/A   Overcast
1:38 PM 60.8 °F 53.6 °F 77% 29.82 in 10.0 mi SSE 3.5 mph - N/A   Overcast
1:44 PM 60.8 °F 53.6 °F 77% 29.83 in 10.0 mi SSW 3.5 mph - N/A   Overcast
1:54 PM 62.6 °F 53.6 °F 72% 29.83 in 10.0 mi SSW 3.5 mph - N/A   Overcast
1:58 PM 61.9 °F 53.2 °F 73% 29.83 in 10.0 mi South 5.8 mph - N/A   Overcast
1:59 PM 62.6 °F 53.6 °F 72% 29.83 in 10.0 mi Variable 4.6 mph - N/A   Overcast
2:07 PM 62.6 °F 53.6 °F 72% 29.83 in 10.0 mi WSW 5.8 mph - N/A   Mostly Cloudy
2:12 PM 62.6 °F 53.6 °F 72% 29.83 in 10.0 mi SW 5.8 mph - N/A   Mostly Cloudy
2:58 PM 63.9 °F 53.1 °F 68% 29.83 in 10.0 mi South 6.9 mph - N/A   Mostly Cloudy
3:44 PM 66.2 °F 53.6 °F 64% 29.83 in 10.0 mi South 13.8 mph - N/A   Mostly Cloudy
3:48 PM 64.4 °F 53.6 °F 68% 29.83 in 10.0 mi SSW 15.0 mph - N/A   Mostly Cloudy
3:58 PM 64.9 °F 52.2 °F 63% 29.83 in 10.0 mi SSW 10.4 mph - N/A   Mostly Cloudy
4:58 PM 66.6 °F 50.9 °F 57% 29.82 in 10.0 mi SSW 9.2 mph - N/A   Partly Cloudy
5:58 PM 64.2 °F 51.4 °F 63% 29.83 in 10.0 mi South 8.1 mph - N/A   Overcast
6:58 PM 63.7 °F 52.9 °F 68% 29.83 in 10.0 mi South 10.4 mph - N/A   Overcast
7:58 PM 61.7 °F 52.3 °F 71% 29.85 in 10.0 mi South 9.2 mph - N/A   Scattered Clouds
8:58 PM 57.2 °F 51.4 °F 81% 29.85 in 10.0 mi South 5.8 mph - N/A   Clear
9:58 PM 55.8 °F 51.4 °F 85% 29.88 in 10.0 mi South 6.9 mph - N/A   Mostly Cloudy
10:58 PM 54.9 °F 50.7 °F 86% 29.88 in 10.0 mi South 6.9 mph - N/A   Mostly Cloudy
11:58 PM 54.3 °F 49.6 °F 84% 29.91 in 10.0 mi ESE 2.3 mph - N/A   Partly Cloudy